FW4092 Weather Reports


Display with metric or nautical units.
time (UTC)temp
F
wind
direction
speed
MPH
gust
MPH
rain 1hr
in
rain 24hr
in
rain mn
in
humidity
%
barometer
mb
20200227235801 66 58 2.0 4.0 0.00 0.00 0.00 21 1024.5
20200227235300 66 67 2.0 4.0 0.00 0.00 0.00 22 1024.5
20200227234800 67 90 1.0 4.0 0.00 0.00 0.00 21 1024.6
20200227234300 67 107 1.0 5.0 0.00 0.00 0.00 22 1024.6
20200227233758 67 142 1.0 5.0 0.00 0.00 0.00 20 1024.6
20200227233258 67 32 1.0 3.0 0.00 0.00 0.00 23 1024.6
20200227232757 66 74 1.0 5.0 0.00 0.00 0.00 22 1024.6
20200227232258 66 74 1.0 5.0 0.00 0.00 0.00 22 1024.6
20200227231757 66 200 2.0 4.0 0.00 0.00 0.00 22 1024.7
20200227231258 66 30 2.0 5.0 0.00 0.00 0.00 22 1024.7
20200227230758 65 106 2.0 5.0 0.00 0.00 0.00 21 1024.8
20200227230258 66 145 2.0 5.0 0.00 0.00 0.00 22 1024.8
20200227225758 66 92 2.0 4.0 0.00 0.00 0.00 22 1024.9
20200227225258 66 69 2.0 6.0 0.00 0.00 0.00 21 1024.8
20200227224758 66 161 2.0 6.0 0.00 0.00 0.00 20 1024.9
20200227224258 66 94 2.0 5.0 0.00 0.00 0.00 21 1025.0
20200227223758 65 33 2.0 5.0 0.00 0.00 0.00 23 1025.0
20200227223257 65 51 1.0 5.0 0.00 0.00 0.00 22 1025.1
20200227222758 65 140 1.0 4.0 0.00 0.00 0.00 20 1025.2
20200227222258 64 188 2.0 5.0 0.00 0.00 0.00 21 1025.4
20200227221757 64 84 2.0 6.0 0.00 0.00 0.00 20 1025.5
20200227221258 64 74 2.0 6.0 0.00 0.00 0.00 21 1025.5
20200227220757 64 68 2.0 6.0 0.00 0.00 0.00 22 1025.5
20200227220257 63 40 2.0 5.0 0.00 0.00 0.00 21 1025.6
20200227215757 63 27 2.0 5.0 0.00 0.00 0.00 23 1025.7
20200227215257 63 337 2.0 5.0 0.00 0.00 0.00 22 1025.8
20200227214758 63 155 2.0 4.0 0.00 0.00 0.00 23 1025.9
20200227214257 63 5 2.0 6.0 0.00 0.00 0.00 23 1026.0
20200227213757 63 15 2.0 6.0 0.00 0.00 0.00 23 1026.1
20200227213255 63 65 2.0 6.0 0.00 0.00 0.00 24 1026.1
20200227212755 62 75 2.0 5.0 0.00 0.00 0.00 24 1026.2
20200227212256 62 341 2.0 5.0 0.00 0.00 0.00 24 1026.3
20200227211758 62 133 2.0 6.0 0.00 0.00 0.00 24 1026.4
20200227211255 62 140 2.0 6.0 0.00 0.00 0.00 25 1026.4
20200227210755 61 128 2.0 6.0 0.00 0.00 0.00 25 1026.5
20200227210255 61 130 3.0 8.0 0.00 0.00 0.00 26 1026.5
20200227205755 61 131 3.0 8.0 0.00 0.00 0.00 26 1026.8
20200227205258 61 200 3.0 7.0 0.00 0.00 0.00 26 1026.9
20200227204756 60 141 3.0 8.0 0.00 0.00 0.00 27 1027.0
20200227204256 60 180 3.0 8.0 0.00 0.00 0.00 26 1027.2
20200227203757 60 92 3.0 8.0 0.00 0.00 0.00 28 1027.3
20200227203254 60 117 3.0 7.0 0.00 0.00 0.00 29 1027.3
20200227202753 59 133 3.0 8.0 0.00 0.00 0.00 31 1027.4
20200227202253 59 151 3.0 8.0 0.00 0.00 0.00 29 1027.4
20200227201753 58 165 3.0 9.0 0.00 0.00 0.00 32 1027.5
20200227201253 58 150 3.0 9.0 0.00 0.00 0.00 32 1027.7
20200227200753 58 157 3.0 8.0 0.00 0.00 0.00 36 1027.7
20200227200253 57 82 3.0 8.0 0.00 0.00 0.00 37 1028.0
20200227195753 57 157 3.0 8.0 0.00 0.00 0.00 37 1028.1
20200227195255 56 110 3.0 9.0 0.00 0.00 0.00 39 1028.2
20200227194753 56 117 3.0 9.0 0.00 0.00 0.00 39 1028.2
20200227194253 56 107 3.0 7.0 0.00 0.00 0.00 40 1028.3
20200227193751 55 146 3.0 10.0 0.00 0.00 0.00 42 1028.4
20200227193251 55 143 3.0 10.0 0.00 0.00 0.00 41 1028.4
20200227192749 55 119 3.0 7.0 0.00 0.00 0.00 43 1028.5
20200227192249 54 141 3.0 7.0 0.00 0.00 0.00 44 1028.5
20200227191748 54 78 3.0 10.0 0.00 0.00 0.00 46 1028.6
20200227191249 53 159 4.0 10.0 0.00 0.00 0.00 46 1028.6
20200227190749 52 146 4.0 9.0 0.00 0.00 0.00 47 1028.6
20200227190249 52 185 3.0 9.0 0.00 0.00 0.00 47 1028.7
20200227185749 52 148 3.0 7.0 0.00 0.00 0.00 48 1028.7
20200227185249 51 107 3.0 8.0 0.00 0.00 0.00 50 1028.7
20200227184749 50 153 4.0 8.0 0.00 0.00 0.00 50 1028.8
20200227184249 50 122 3.0 8.0 0.00 0.00 0.00 50 1028.8
20200227183749 49 157 3.0 8.0 0.00 0.00 0.00 52 1028.8
20200227183249 49 121 4.0 8.0 0.00 0.00 0.00 51 1028.9
20200227182749 49 133 3.0 8.0 0.00 0.00 0.00 52 1028.9
20200227182524 49 136 3.0 6.0 0.00 0.00 0.00 52 1028.9
20200227182314 49 136 3.0 6.0 0.00 0.00 0.00 52 1028.9
20200227181749 48 162 3.0 7.0 0.00 0.00 0.00 53 1029.1
20200227181249 47 139 3.0 7.0 0.00 0.00 0.00 55 1029.1
20200227180749 47 152 4.0 7.0 0.00 0.00 0.00 54 1029.2
20200227180249 46 163 3.0 8.0 0.00 0.00 0.00 55 1029.2
20200227175749 46 109 4.0 8.0 0.00 0.00 0.00 56 1029.2
20200227175249 45 136 4.0 9.0 0.00 0.00 0.00 57 1029.2
20200227174752 44 105 4.0 10.0 0.00 0.00 0.00 57 1029.2
20200227174249 44 125 4.0 11.0 0.00 0.00 0.00 57 1029.2
20200227173749 44 94 4.0 11.0 0.00 0.00 0.00 58 1029.3
20200227173248 43 163 4.0 9.0 0.00 0.00 0.00 61 1029.3
20200227172749 43 113 4.0 9.0 0.00 0.00 0.00 60 1029.3
20200227172248 42 138 4.0 9.0 0.00 0.00 0.00 62 1029.3
20200227171749 42 133 4.0 9.0 0.00 0.00 0.00 62 1029.3
20200227171249 41 162 3.0 9.0 0.00 0.00 0.00 63 1029.4
20200227170748 41 144 3.0 8.0 0.00 0.00 0.00 65 1029.4
20200227170249 40 188 4.0 9.0 0.00 0.00 0.00 67 1029.4
20200227165748 40 173 4.0 9.0 0.00 0.00 0.00 66 1029.3
20200227165248 39 159 4.0 9.0 0.00 0.00 0.00 67 1029.2
20200227164749 38 153 4.0 8.0 0.00 0.00 0.00 69 1029.3
20200227164251 38 126 3.0 8.0 0.00 0.00 0.00 70 1029.3
20200227163749 37 140 3.0 7.0 0.00 0.00 0.00 71 1029.3
20200227163249 36 146 2.0 7.0 0.00 0.00 0.00 71 1029.3
20200227162749 35 137 2.0 6.0 0.00 0.00 0.00 73 1029.3
20200227162248 35 150 2.0 6.0 0.00 0.00 0.00 74 1029.3
20200227161751 34 139 3.0 7.0 0.00 0.00 0.00 74 1029.4
20200227161249 34 154 2.0 7.0 0.00 0.00 0.00 75 1029.3
20200227160749 33 124 2.0 6.0 0.00 0.00 0.00 77 1029.2
20200227160248 32 150 2.0 6.0 0.00 0.00 0.00 78 1029.3
20200227155748 31 148 2.0 6.0 0.00 0.00 0.00 80 1029.3
20200227155249 31 146 3.0 8.0 0.00 0.00 0.00 80 1029.2
20200227154748 30 145 3.0 8.0 0.00 0.00 0.00 79 1029.2
20200227154249 30 150 3.0 9.0 0.00 0.00 0.00 80 1029.1
20200227153748 30 175 3.0 9.0 0.00 0.00 0.00 81 1028.8
20200227153248 29 151 3.0 8.0 0.00 0.00 0.00 82 1028.9
20200227152746 29 168 3.0 8.0 0.00 0.00 0.00 81 1028.9
20200227152251 29 139 3.0 7.0 0.00 0.00 0.00 82 1028.8
20200227151751 29 143 3.0 7.0 0.00 0.00 0.00 82 1028.8
20200227151249 28 160 3.0 7.0 0.00 0.00 0.00 83 1028.8
20200227150747 28 132 3.0 6.0 0.00 0.00 0.00 84 1028.8
20200227150247 27 154 2.0 7.0 0.00 0.00 0.00 84 1028.9
20200227145748 27 140 2.0 7.0 0.00 0.00 0.00 84 1028.8
20200227145247 27 173 2.0 6.0 0.00 0.00 0.00 85 1028.9
20200227144747 27 157 2.0 5.0 0.00 0.00 0.00 85 1028.9
20200227144247 27 168 2.0 4.0 0.00 0.00 0.00 85 1028.8
20200227143746 27 178 2.0 6.0 0.00 0.00 0.00 85 1028.7
20200227143247 26 151 2.0 7.0 0.00 0.00 0.00 85 1028.7
20200227142745 26 165 2.0 7.0 0.00 0.00 0.00 85 1028.8
20200227142244 26 166 3.0 7.0 0.00 0.00 0.00 85 1028.7
20200227141744 26 130 4.0 8.0 0.00 0.00 0.00 85 1028.6
20200227141244 26 159 3.0 8.0 0.00 0.00 0.00 85 1028.5
20200227140744 26 140 3.0 7.0 0.00 0.00 0.00 85 1028.5
20200227140244 26 143 3.0 7.0 0.00 0.00 0.00 85 1028.6
20200227135744 27 144 3.0 7.0 0.00 0.00 0.00 84 1028.8
20200227135245 27 133 3.0 7.0 0.00 0.00 0.00 85 1028.8
20200227134744 27 136 3.0 7.0 0.00 0.00 0.00 85 1028.8
20200227134245 27 138 3.0 7.0 0.00 0.00 0.00 85 1028.7
20200227133744 27 153 3.0 8.0 0.00 0.00 0.00 85 1028.7
20200227133242 27 153 4.0 10.0 0.00 0.00 0.00 85 1028.7
20200227132742 27 155 3.0 10.0 0.00 0.00 0.00 85 1028.7
20200227132242 27 138 3.0 9.0 0.00 0.00 0.00 85 1028.7
20200227131742 27 142 4.0 9.0 0.00 0.00 0.00 85 1028.7
20200227131240 27 173 4.0 8.0 0.00 0.00 0.00 85 1028.8
20200227130739 26 150 4.0 8.0 0.00 0.00 0.00 85 1028.7
20200227130240 26 153 4.0 7.0 0.00 0.00 0.00 86 1028.7
20200227125739 26 140 4.0 6.0 0.00 0.00 0.00 86 1028.8
20200227125239 26 155 3.0 7.0 0.00 0.00 0.00 86 1028.8
20200227124738 26 141 3.0 7.0 0.00 0.00 0.00 86 1028.8
20200227124238 27 157 2.0 6.0 0.00 0.00 0.00 85 1028.8
20200227123738 27 155 2.0 5.0 0.00 0.00 0.00 84 1028.8
20200227123238 27 153 3.0 7.0 0.00 0.00 0.00 84 1028.9
20200227122738 27 146 3.0 7.0 0.00 0.00 0.00 85 1028.8
20200227122237 27 147 3.0 7.0 0.00 0.00 0.00 85 1028.8
20200227121737 27 146 2.0 5.0 0.00 0.00 0.00 85 1028.7
20200227121238 27 149 1.0 5.0 0.00 0.00 0.00 85 1028.8
20200227120736 27 154 1.0 5.0 0.00 0.00 0.00 84 1028.9
20200227120236 27 138 2.0 6.0 0.00 0.00 0.00 84 1028.8
20200227115738 28 149 2.0 6.0 0.00 0.00 0.00 84 1028.9
20200227115236 28 148 3.0 6.0 0.00 0.00 0.00 83 1028.8
20200227114735 28 148 3.0 6.0 0.00 0.00 0.00 83 1028.8
20200227114236 28 138 2.0 6.0 0.00 0.00 0.00 83 1028.9
20200227113735 28 152 1.0 5.0 0.00 0.00 0.00 84 1029.1
20200227113235 28 154 2.0 5.0 0.00 0.00 0.00 84 1028.9
20200227112736 28 134 2.0 6.0 0.00 0.00 0.00 85 1028.9
20200227112235 28 144 2.0 6.0 0.00 0.00 0.00 85 1028.8
20200227111736 28 144 3.0 6.0 0.00 0.00 0.00 85 1028.8
20200227111235 28 155 3.0 6.0 0.00 0.00 0.00 85 1028.8
20200227110736 28 132 2.0 6.0 0.00 0.00 0.00 85 1028.8
20200227110238 27 134 2.0 5.0 0.00 0.00 0.00 85 1028.9
20200227105735 27 163 2.0 5.0 0.00 0.00 0.00 85 1029.1
20200227105235 27 150 1.0 4.0 0.00 0.00 0.00 85 1029.1
20200227104737 27 165 1.0 4.0 0.00 0.00 0.00 85 1029.2
20200227104235 27 154 1.0 7.0 0.00 0.00 0.00 85 1029.3
20200227103733 27 153 2.0 7.0 0.00 0.00 0.00 84 1029.2
20200227103234 27 146 1.0 5.0 0.00 0.00 0.00 83 1029.2
20200227102734 27 136 1.0 4.0 0.00 0.00 0.00 84 1029.2
20200227102233 27 157 1.0 4.0 0.00 0.00 0.00 83 1029.3
20200227101733 27 151 1.0 3.0 0.00 0.00 0.00 84 1029.3
20200227101236 27 150 1.0 3.0 0.00 0.00 0.00 84 1029.3
20200227100733 27 140 1.0 3.0 0.00 0.00 0.00 83 1029.3
20200227100231 28 157 1.0 2.0 0.00 0.00 0.00 84 1029.4
20200227095729 28 157 1.0 2.0 0.00 0.00 0.00 83 1029.3
20200227095229 28 157 0.0 2.0 0.00 0.00 0.00 83 1029.3
20200227094730 28 157 1.0 2.0 0.00 0.00 0.00 82 1029.3
20200227094229 29 156 1.0 2.0 0.00 0.00 0.00 81 1029.3
20200227093729 29 156 1.0 2.0 0.00 0.00 0.00 81 1029.3
20200227093229 29 157 1.0 4.0 0.00 0.00 0.00 81 1029.3
20200227092732 29 161 1.0 4.0 0.00 0.00 0.00 81 1029.1
20200227092230 29 157 1.0 2.0 0.00 0.00 0.00 81 1029.1
20200227091731 30 157 1.0 4.0 0.00 0.00 0.00 80 1029.1
20200227091230 30 157 1.0 4.0 0.00 0.00 0.00 81 1029.2
20200227090730 30 144 1.0 3.0 0.00 0.00 0.00 82 1029.1
20200227090229 30 140 1.0 2.0 0.00 0.00 0.00 81 1029.2
20200227085729 30 139 1.0 3.0 0.00 0.00 0.00 81 1029.4
20200227085229 30 139 1.0 3.0 0.00 0.00 0.00 81 1029.3
20200227084730 30 139 2.0 4.0 0.00 0.00 0.00 81 1029.2
20200227084232 30 134 2.0 4.0 0.00 0.00 0.00 81 1029.2
20200227083729 30 127 1.0 3.0 0.00 0.00 0.00 81 1029.1
20200227083229 30 112 1.0 2.0 0.00 0.00 0.00 82 1028.9
20200227082729 30 112 0.0 2.0 0.00 0.00 0.00 84 1028.9
20200227082229 30 112 0.0 1.0 0.00 0.00 0.00 86 1028.9
20200227081731 29 112 0.0 0.0 0.00 0.00 0.00 86 1028.8
20200227081229 29 112 0.0 1.0 0.00 0.00 0.00 84 1028.8
20200227080729 29 112 0.0 1.0 0.00 0.00 0.00 82 1028.8
20200227080227 29 112 0.0 1.0 0.00 0.00 0.00 81 1028.8
20200227075730 29 112 0.0 1.0 0.00 0.00 0.00 79 1028.7
20200227075227 30 112 0.0 1.0 0.00 0.00 0.00 78 1028.7
20200227074727 31 112 1.0 2.0 0.00 0.00 0.00 76 1028.7
20200227074227 32 112 1.0 2.0 0.00 0.00 0.00 75 1028.7
20200227073727 33 112 1.0 4.0 0.00 0.00 0.00 73 1028.7
20200227073227 34 112 1.0 4.0 0.00 0.00 0.00 74 1028.7
20200227072727 35 252 1.0 2.0 0.00 0.00 0.00 79 1028.7
20200227072225 35 252 0.0 2.0 0.00 0.00 0.00 78 1028.7
20200227071725 35 252 0.0 2.0 0.00 0.00 0.00 73 1028.7
20200227071225 35 252 0.0 1.0 0.00 0.00 0.00 75 1028.7
20200227070725 35 252 0.0 1.0 0.00 0.00 0.00 74 1028.8
20200227070225 36 252 1.0 2.0 0.00 0.00 0.00 73 1028.7
20200227065725 36 252 1.0 2.0 0.00 0.00 0.00 73 1028.8
20200227065225 37 267 1.0 2.0 0.00 0.00 0.00 75 1028.8
20200227064725 37 271 0.0 2.0 0.00 0.00 0.00 73 1028.8
20200227064225 37 271 0.0 1.0 0.00 0.00 0.00 74 1028.9
20200227063725 37 271 0.0 1.0 0.00 0.00 0.00 73 1028.8
20200227063223 37 271 0.0 1.0 0.00 0.00 0.00 74 1028.9
20200227062723 37 271 0.0 2.0 0.00 0.00 0.00 73 1028.8
20200227062222 37 271 1.0 2.0 0.00 0.00 0.00 73 1028.7
20200227061723 37 271 1.0 2.0 0.00 0.00 0.00 72 1028.8
20200227061223 37 271 1.0 2.0 0.00 0.00 0.00 71 1028.9
20200227060725 38 271 1.0 2.0 0.00 0.00 0.00 69 1028.9
20200227060222 38 271 1.0 2.0 0.00 0.00 0.00 69 1028.8
20200227055724 38 271 1.0 2.0 0.00 0.00 0.00 69 1028.9
20200227055223 38 271 0.0 2.0 0.00 0.00 0.00 68 1029.1
20200227054723 38 271 1.0 2.0 0.00 0.00 0.00 68 1029.1
20200227054229 38 271 1.0 3.0 0.00 0.00 0.00 66 1029.1
20200227053726 39 271 1.0 3.0 0.00 0.00 0.00 66 1028.9
20200227053224 39 281 1.0 3.0 0.00 0.00 0.00 66 1028.8
20200227052726 39 271 1.0 2.0 0.00 0.00 0.00 67 1028.9
20200227052229 39 272 1.0 2.0 0.00 0.00 0.00 66 1028.8
20200227051728 39 272 1.0 2.0 0.00 0.00 0.00 65 1028.9
20200227051226 40 273 1.0 3.0 0.00 0.00 0.00 65 1028.9
20200227050727 40 275 1.0 3.0 0.00 0.00 0.00 64 1028.9
20200227050221 40 269 1.0 3.0 0.00 0.00 0.00 63 1028.8
20200227045725 40 319 1.0 3.0 0.00 0.00 0.00 63 1028.8
20200227045228 40 319 0.0 3.0 0.00 0.00 0.00 63 1028.8
20200227044723 40 333 0.0 2.0 0.00 0.00 0.00 62 1028.6
20200227044225 41 333 0.0 1.0 0.00 0.00 0.00 62 1028.7
20200227043722 41 333 0.0 1.0 0.00 0.00 0.00 62 1028.7
20200227043226 41 333 0.0 2.0 0.00 0.00 0.00 62 1028.7
20200227042725 41 333 0.0 2.0 0.00 0.00 0.00 61 1028.6
20200227042224 41 333 0.0 3.0 0.00 0.00 0.00 61 1028.4
20200227041726 41 333 0.0 3.0 0.00 0.00 0.00 60 1028.4
20200227041226 41 331 0.0 3.0 0.00 0.00 0.00 58 1028.4
20200227040726 41 5 0.0 0.0 0.00 0.00 0.00 58 1028.3
20200227040226 41 30 0.0 0.0 0.00 0.00 0.00 57 1028.3
20200227035721 41 30 0.0 0.0 0.00 0.00 0.00 56 1028.3
20200227035223 42 30 0.0 0.0 0.00 0.00 0.00 56 1028.3
20200227034726 42 30 0.0 0.0 0.00 0.00 0.00 55 1028.2
20200227034214 42 30 0.0 0.0 0.00 0.00 0.00 54 1028.2
20200227033712 42 30 0.0 0.0 0.00 0.00 0.00 53 1028.1
20200227033210 43 30 0.0 0.0 0.00 0.00 0.00 53 1028.1
20200227032711 43 30 0.0 0.0 0.00 0.00 0.00 52 1028.0
20200227032210 43 30 0.0 0.0 0.00 0.00 0.00 52 1028.0
20200227031710 44 30 0.0 0.0 0.00 0.00 0.00 51 1027.9
20200227031210 44 30 0.0 0.0 0.00 0.00 0.00 51 1027.9
20200227030711 44 30 0.0 0.0 0.00 0.00 0.00 51 1027.9
20200227030210 44 30 0.0 0.0 0.00 0.00 0.00 51 1027.7
20200227025706 45 30 0.0 0.0 0.00 0.00 0.00 51 1027.9
20200227025207 45 30 0.0 0.0 0.00 0.00 0.00 51 1027.9
20200227024706 46 30 0.0 0.0 0.00 0.00 0.00 50 1027.7
20200227024205 46 30 0.0 0.0 0.00 0.00 0.00 49 1027.5
20200227023705 47 30 0.0 0.0 0.00 0.00 0.00 49 1027.6
20200227023204 47 30 0.0 0.0 0.00 0.00 0.00 48 1027.5
20200227022702 48 30 0.0 1.0 0.00 0.00 0.00 47 1027.5
20200227022202 48 30 0.0 2.0 0.00 0.00 0.00 46 1027.4
20200227021702 49 30 0.0 2.0 0.00 0.00 0.00 46 1027.5
20200227021210 49 30 0.0 3.0 0.00 0.00 0.00 45 1027.3
20200227020703 50 30 0.0 3.0 0.00 0.00 0.00 45 1027.3
20200227020202 50 46 0.0 3.0 0.00 0.00 0.00 45 1027.3
20200227015703 51 36 1.0 3.0 0.00 0.00 0.00 45 1027.3
20200227015205 52 36 1.0 3.0 0.00 0.00 0.00 44 1027.4
20200227014700 52 36 1.0 4.0 0.00 0.00 0.00 44 1027.3
20200227014200 53 49 1.0 5.0 0.00 0.00 0.00 43 1027.4
20200227013700 54 28 2.0 5.0 0.00 0.00 0.00 43 1027.4
20200227013200 55 19 2.0 4.0 0.00 0.00 0.00 42 1027.4
20200227012700 55 38 2.0 4.0 0.00 0.00 0.00 43 1027.3
20200227012200 56 30 1.0 5.0 0.00 0.00 0.00 43 1027.3
20200227011701 56 56 2.0 5.0 0.00 0.00 0.00 43 1027.3
20200227011159 57 32 2.0 5.0 0.00 0.00 0.00 43 1027.4
20200227010658 57 36 2.0 5.0 0.00 0.00 0.00 42 1027.4
20200227010201 57 30 2.0 5.0 0.00 0.00 0.00 42 1027.3
20200227005658 58 53 2.0 5.0 0.00 0.00 0.00 41 1027.3
20200227005158 58 15 2.0 5.0 0.00 0.00 0.00 41 1027.4
20200227004658 58 345 2.0 4.0 0.00 0.00 0.00 40 1027.4
20200227004158 58 40 2.0 6.0 0.00 0.00 0.00 40 1027.4
20200227003658 58 15 3.0 6.0 0.00 0.00 0.00 40 1027.5
20200227003158 58 29 2.0 6.0 0.00 0.00 0.00 40 1027.6
20200227002658 58 343 2.0 6.0 0.00 0.00 0.00 39 1027.6
20200227002158 59 265 2.0 6.0 0.00 0.00 0.00 37 1027.5
20200227001658 59 14 2.0 8.0 0.00 0.00 0.00 37 1027.5
20200227001158 59 51 2.0 8.0 0.00 0.00 0.00 39 1027.3
20200227000659 59 28 3.0 8.0 0.00 0.00 0.00 37 1027.2
20200227000158 59 15 3.0 8.0 0.00 0.00 0.00 37 1027.1